格洛纳斯-796 COSMOS 2411 [GLONASS]

导读

COSMOS 2413(宇宙2413),是隶属于独立国家联合体(CIS)的GLONASS(全球导航卫星系统)组网卫星,于2004年12月26日发射升空。该卫星属于GLONASS-M改进型号,运行于高度约19100公里的中圆地球轨道,轨道倾角64.8°,运行周期约11小时15分,采用频分多址技术播发导航信号,为全球用户提供高精度的定位、导航与授时服务,是俄罗斯推进GLONASS系统全球组网过程中的重要卫星,助力提升系统服务覆盖范围与定位可靠性。

基本信息
目录编号:
28508
目录名称:
COSMOS 2413 (GLONASS)
国际标识:
2004-053A
轨道中心:
EARTH
卫星名称:
格洛纳斯-796
卫星全名:
格洛纳斯-796 COSMOS 2411 [GLONASS]
卫星状态:
在轨 (已飞行7847 天)
发射日期:
2004-12-26 UTC
国别 :
俄罗斯(独联体) (CIS)
星等 :
--
轨道信息
数据来源 国际轨道数据 AOE轨道数据
星历时间 2026-06-20T15:22:04+0800
1天前
查看轨道信息
2026-06-20T04:00:00+0800
1天前
查看轨道信息
半长轴 25507.913km 25508.009km
偏心率 0.0005016 0.0005007
轨道倾角 64.215° 64.215°
近地点辐角 236.854° 235.238°
升交点赤经 60.134° 60.150°
平近点角 322.059° 320.296°
近地点 19116.981km 19117.1km
远地点 19142.571km 19142.644km
周期 675.728分钟 675.732分钟
每日圈数 2.131034 2.131022
详细信息
平衡模式:
三轴稳定
覆盖范围:
全球
运营商:
列舍特涅夫卫星信息系统
运营商所在国:
俄罗斯
制造商(研发单位):
列舍特涅夫卫星信息系统
制造商所在国:
俄罗斯
使用方式:
暂无
卫星简介
格洛纳斯(GLONASS )是苏联/俄罗斯研制卫星导航系统。标准配置为24颗卫星,其中18颗卫星就能保证该系统为俄罗斯境内用户提供全部服务。该卫星已退役。
2D轨道图
3D轨道图
轨道高度分析图
轨道倾角分析图
轨道综合分析图
查看轨道综合分析图